Skip Page Navigation
NASA JPL Caltech
NASA Logo - Jet Propulsion Laboratory + View the NASA Portal
+ Near-Earth Object (NEO) Program
Search JPL
JPL Home Earth Solar System Stars & Galaxies Technology
JPL Solar System Dynamics
BODIES ORBITS EPHEMERIDES TOOLS PHYSICAL DATA DISCOVERY FAQ SITE MAP
JPL Small-Body Database Browser
Search: [ help ]  
10896 (1997 UZ14)
Classification: Main-belt Asteroid          SPK-ID: 2010896
Ephemeris | Orbit Diagram | Orbital Elements | Physical Parameters ]

[ show orbit diagram ]
Orbital Elements at Epoch 2456400.5 (2013-Apr-18.0) TDB
Reference: JPL 1 (heliocentric ecliptic J2000)
 Element Value Uncertainty (1-sigma)   Units 
e .1307396495500782 5.7316e-08  
a 2.350853109472275 1.4686e-08 AU
q 2.043503397796158 1.3419e-07 AU
i 4.346556728353852 6.4577e-06 deg
node 48.27853826415305 8.2559e-05 deg
peri 86.73807996646083 8.746e-05 deg
M 26.2690987108575 2.6726e-05 deg
tp 2456304.431869602796
(2013-Jan-11.93186960)
9.7665e-05 JED
period 1316.547907625735
3.60
1.2337e-05
3.378e-08
d
yr
n .2734423851306899 2.5624e-09 deg/d
Q 2.658202821148392 1.6606e-08 AU
  Orbit Determination Parameters
   # obs. used (total)      848  
   data-arc span      11662 days (31.93 yr)  
   first obs. used      1981-05-08  
   last obs. used      2013-04-12  
   planetary ephem.      DE405  
   SB-pert. ephem.      SB405-CPV-2  
   condition code      0  
   fit RMS      .63167  
   data source      ORB  
   producer      Otto Matic  
   solution date      2013-Apr-29 13:42:08  

Additional Information
 Earth MOID = 1.06262 AU 
 T_jup = 3.542 
[ show covariance matrix ]

Ephemeris | Orbit Diagram | Orbital Elements | Physical Parameters ]

Physical Parameter Table
Parameter Symbol Value Units Sigma Reference Notes
absolute magnitude H 14.6 mag n/a PDS3 (MPC 34796)  

Alternate Designations
 1997 UZ14 = 1981 JP4 
Ephemeris | Orbit Diagram | Orbital Elements | Physical Parameters ]
ABOUT SSD CREDITS/AWARDS PRIVACY/COPYRIGHT GLOSSARY LINKS
FirstGov 2013-May-21 19:43 UT
(server date/time)  
NASA Home Page
Site Manager:   Donald K. Yeomans
Webmaster  Alan B. Chamberlin